fechar
X Fechar
X Fechar

X Fechar
foto
Salvar nos Favoritos

X Fechar
foto
Clique e saiba mais
Clique e saiba mais
Clique e saiba mais
Clique e saiba mais
Clique e saiba mais
Clique e saiba mais
Clique e saiba mais

América Sports

Capacete Companhia

RM - Motocross Racing

Edgers Racing

RX Graphics

JPS Racing

Ohlins

DLua Racing

Toro Sports

Clique e saiba mais

> Notícias > Últimas Notícias

MXGP da Europa: vídeos e resultados das corridas qualificatórias
Publicado em: 25/04/2015

Gautier Paulin fatura primeira bateria na temporada
Redação MotoX.com.br - Foto: HRC


Gautier Paulin larga na frente para vencer a qualificatória do MXGP da Europa

Gautier Paulin mostrou neste sábado (25) que se dá bem com pistas arenosas. O piloto da Honda, que tem um bom histórico neste tipo de solo, faturou a corrida qualificatória do MXGP da Europa, em Valkenswaard, Holanda. Antonio Cairoli, que também é um especialista na areia, terminou a bateria na segunda colocação, 12 segundos atrás do vencedor.  

Veja também: Villopoto e Horebeek fora do GP da Europa

Na MX2, Jeffrey Herlings, piloto da casa, não teve dificuldades em vencer com 24 segundos de vantagem sobre o russo Alexander Tonkov. Neste domingo, os resultados das corridas válidas pela quinta etapa do Mundial de Motocross podem ser acompanhadas em tempo real através do link: https://www.motox.com.br/liveresults/mundialmx/.

Cronograma (horários de Brasília)
04h30 - EMX300 Race 2
05h20 - EMX125 Race 2
06h55 - EMX250 Race2
08h00 - MX2 Race 1
09h00 - MXGP Race 1
11h00 - MX2 Race 2
12h00 - MXGP Race 2

Transmissão ao vivo e sob demanda via Internet: MXGP-TV.com
Planos a partir de 6 Euros por corrida ou 100 Euros para toda a temporada + Nações.

Transmissão pela Band Sports 2ª baterias MX2 e MXGP em VT às 15h e 16h.

Vídeos com os melhores momentos deste sábado:







Resultados

P. Nac MXGP M Tempo Diff Gap Melhor Volta Last Lap
1 FR G. Paulin (21) HON 24:56.603     01:53.531 12: 02:01.686
2 IT A. Cairoli (222) KTM 25:09.444 +00:12.841 +00:12.841 01:54.461 12: 02:03.282
3 FR R. Febvre (461) YAM 25:16.140 +00:19.537 +00:06.696 01:54.936 12: 02:01.595
4 RU E. Bobryshev (777) HON 25:19.795 +00:23.192 +00:03.655 01:54.480 12: 02:02.444
5 GB S. Simpson (24) KTM 25:21.068 +00:24.465 +00:01.273 01:54.130 12: 02:00.730
6 ZA T. Rattray (28) KAW 25:32.351 +00:35.748 +00:11.283 01:55.331 12: 02:07.537
7 DE M. Nagl (12) HUS 25:36.982 +00:40.379 +00:04.631 01:56.537 12: 02:04.438
8 NL G. Coldenhoff (259) SUZ 25:49.266 +00:52.663 +00:12.284 01:56.891 12: 02:00.516
9 IT D. Philippaerts (19) YAM 25:53.012 +00:56.409 +00:03.746 01:58.415 12: 02:01.778
10 SE F. Bengtsson (11) HON 25:56.534 +00:59.931 +00:03.522 01:55.961 12: 02:03.790
11 BE C. Desalle (25) SUZ 26:05.687 +01:09.084 +00:09.153 01:56.584 12: 02:03.605
12 BE K. d. Dycker (9) KTM 26:08.684 +01:12.081 +00:02.997 01:58.159 12: 02:05.718
13 AU D. Ferris (111) HUS 26:10.352 +01:13.749 +00:01.668 01:58.560 12: 02:04.286
14 GB T. Searle (100) KTM 26:12.140 +01:15.537 +00:01.788 01:57.100 12: 02:04.469
15 ES J. Butron (17) KTM 26:12.925 +01:16.322 +00:00.785 01:59.038 12: 02:03.345
16 EE T. Leok (40) KAW 26:16.670 +01:20.067 +00:03.745 01:58.980 12: 02:03.329
17 FR C. Charlier (23) HON 26:18.677 +01:22.074 +00:02.007 01:59.975 12: 02:04.562
18 FR X. Boog (121) KAW 26:29.829 +01:33.226 +00:11.152 02:00.301 12: 02:07.251
19 FR S. Frossard (183) KTM 26:36.388 +01:39.785 +00:06.559 01:58.602 12: 02:05.583
20 IT D. Guarneri (39) TM 26:37.093 +01:40.490 +00:00.705 01:58.050 12: 02:01.589
21 DE A. Heidecke (156) KTM 27:01.488 +02:04.885 +00:24.395 02:01.821 12: 02:09.126
22 BE J. Dewulf (212) YAM 27:05.606 +02:09.003 +00:04.118 02:00.067 12: 02:32.158
23 BE M. Vanderstraeten (8) HUS 27:15.176 +02:18.573 +00:09.570 02:01.671 12: 02:24.631
24 IT A. Lupino (77) HON 25:27.352 -1 lap -1 lap 02:02.601 11: 02:13.600
25 DE D. Ullrich (149) SUZ 25:43.029 -1 lap -1 lap 02:05.599 11: 02:12.411
26 PT R. Goncalves (999) HUS 25:52.669 -1 lap -1 lap 02:02.232 11: 02:12.797
27 JP K. Yamamoto (400) HON 26:20.213 -1 lap -1 lap 02:07.287 11: 02:22.761
28 BE N. Triest (90) KTM 26:25.150 -1 lap -1 lap 02:04.323 11: 02:07.881
29 NL R. Satink (194) HUS 21:13.253 -3 laps -3 laps 02:05.181 9: 02:09.599
30 NL C. K. Kromhof (63) KTM 21:21.214 -4 laps -4 laps 01:59.976 8: 04:55.134
31 GB M. Barr (50) KTM 18:10.592 -5 laps -5 laps 02:01.840 7: 02:33.901
32 AU T. Waters (47) HUS 05:13.395 -11 laps -11 laps 03:19.117  
P. Nac MX2 M Tempo Diff Gap Melhor Volta Last Lap
1 NL J. Herlings (84) KTM 25:10.873     01:55.267 12: 01:57.648
2 RU A. Tonkov (59) HUS 25:35.234 +00:24.361 +00:24.361 01:56.491 12: 02:02.271
3 FR J. Tixier (1) KAW 25:38.945 +00:28.072 +00:03.711 01:56.277 12: 02:04.421
4 LV P. Jonass (41) KTM 25:44.325 +00:33.452 +00:05.380 01:57.237 12: 02:04.187
5 GB M. Anstie (99) KAW 25:51.896 +00:41.023 +00:07.571 01:56.810 12: 02:04.479
6 BE J. Getteman (51) HON 26:00.908 +00:50.035 +00:09.012 01:58.628 12: 02:05.658
7 FR D. Ferrandis (4) KAW 26:05.293 +00:54.420 +00:04.385 01:56.709 12: 02:01.976
8 NL B. Bogers (189) KTM 26:07.171 +00:56.298 +00:01.878 01:57.422 12: 02:02.809
9 CH V. Guillod (92) YAM 26:10.036 +00:59.163 +00:02.865 01:57.355 12: 02:02.964
10 RU V. Brylyakov (18) HON 26:23.201 +01:12.328 +00:13.165 01:58.979 12: 02:09.215
11 CH J. Seewer (91) SUZ 26:35.694 +01:24.821 +00:12.493 01:58.631 12: 02:04.847
12 BE J. Lieber (33) YAM 26:50.191 +01:39.318 +00:14.497 01:59.530 12: 02:05.385
13 BG P. Petrov (152) KTM 26:51.543 +01:40.670 +00:01.352 01:59.743 12: 02:03.071
14 LV R. Justs (95) KTM 26:53.727 +01:42.854 +00:02.184 02:01.537 12: 02:04.578
15 GB B. Watson (919) KTM 27:02.931 +01:52.058 +00:09.204 02:02.402 12: 02:05.355
16 BE B. V. doninck (172) YAM 27:07.283 +01:56.410 +00:04.352 01:59.257 12: 02:09.711
17 FI H. Kullas (151) SUZ 27:09.072 +01:58.199 +00:01.789 02:02.391 12: 02:09.138
18 EE K. Kutsar (132) KTM 25:21.668 -1 lap -1 lap 02:04.698 11: 02:07.700
19 SE A. Lundgren (274) HUS 25:47.761 -1 lap -1 lap 02:06.380 11: 02:17.395
20 GB J. Booker (140) KTM 25:59.518 -1 lap -1 lap 02:06.903 11: 02:16.761
21 RU A. Guryev (555) KTM 26:35.338 -1 lap -1 lap 02:08.719 11: 02:17.598
22 GB G. Featherstone (93) HON 26:48.704 -1 lap -1 lap 02:09.241 11: 02:18.029
23 RU V. Golovkin (300) KTM 26:49.270 -1 lap -1 lap 02:07.246 11: 02:10.501
24 BG M. G. Ivanov (97) HUS 26:52.303 -1 lap -1 lap 02:11.282 11: 02:11.938
25 SI T. Gajser (243) HON 15:22.315 -5 laps -5 laps 01:56.899 7: 03:29.716
26 US T. Covington (64) KAW 11:23.915 -8 laps -8 laps 02:05.214 4: 02:08.213
27 CH C. Valente (71) HUS 11:48.398 -8 laps -8 laps 02:12.456 4: 02:47.196
28 DE H. Jacobi (29) KTM 06:04.831 -10 laps -10 laps 02:02.847  
29 IT I. Monticelli (128) KTM 07:25.290 -10 laps -10 laps 02:06.470  
30 BE K. Fors (922) YAM 07:34.813 -10 laps -10 laps 02:03.248  
31 FR B. Paturel (6) YAM 01:53.710 -12 laps -12 laps 00:00.000  






Vídeos MotoX Connect



Acompanhe o MotoX no Facebook

Curso MotoX
Brasil Racing
JPS Racing

© 2000 - 2017 MotoX MX1 Internet